レモン彗星

C/2019 U6 ( Lemmon )

English version
Home page
Updated on June 27, 2020

---------------------------------------------------------------------

・ プロフィール

発見日 2019年10月31日
発見光度 20.5等
発見者 R. A. Kowalski (Mt. Lemmon Survey)

・ 写真集

・ 軌道要素

Epoch 2020 May 31.0 TT = JDT 2459000.5
T 2020 June 18.82214 TT                                 Rudenko
q   0.9142396            (2000.0)            P               Q
z  +0.0023143      Peri.  329.66104     -0.68858485     +0.06105880
 +/-0.0000013      Node   235.70576     -0.35185738     -0.89942162
e   0.9978842      Incl.   61.00132     -0.63407199     +0.43279623
From 362 observations 2018 Nov. 6-2020 May 29, mean residual 0".7.

・ 星図

・ 光度変化

        H = 14.0  G = 0.15                       [    ,-231]  (              〜2019年10月31日)
        m1 = 7.0 + 5 logΔ + 20.0 log r(t + 10)  [-231,    ]  (2019年10月31日〜              )

---------------------------------------------------------------------

軌道要素はM.P.E.C. 2020-L06に掲載されたものです。
星図はステラナビゲータ Ver.10 (アストロアーツ) で作成したものです。
光度グラフはComet for Windowsで作成したものです。

---------------------------------------------------------------------

Copyright(C) Seiichi Yoshida (comet@aerith.net). All rights reserved.